H1 CPF 2 NER 2023 4 5 9 095 01 glonass143 H2 2007501 9143 46805 2023 4 5 0 0 0 2023 4 8 23 45 0 900 1 1 0 0 0 1 H9 10 0 60039 0.00000 0 21006221.548 13343630.261 -5627622.661 10 0 60039 900.00000 0 21494804.293 13525199.658 -2466473.352 10 0 60039 1800.00000 0 21665664.617 13458742.080 742552.733 10 0 60039 2700.00000 0 21486611.429 13189170.595 3937168.103 10 0 60039 3600.00000 0 20937079.443 12767937.052 7055377.987 10 0 60039 4500.00000 0 20009140.615 12250657.297 10036681.879 10 0 60039 5400.00000 0 18708001.697 11694574.718 12823244.922 10 0 60039 6300.00000 0 17051966.638 11155969.450 15361016.528 10 0 60039 7200.00000 0 15071864.900 10687622.718 17600774.708 10 0 60039 8100.00000 0 12809968.999 10336443.186 19499076.293 10 0 60039 9000.00000 0 10318445.711 10141355.244 21019095.143 10 0 60039 9900.00000 0 7657404.650 10131538.025 22131332.661 10 0 60039 10800.00000 0 4892624.488 10325089.189 22814187.439 10 0 60039 11700.00000 0 2093050.207 10728169.760 23054373.491 10 0 60039 12600.00000 0 -671835.742 11334666.243 22847179.233 10 0 60039 13500.00000 0 -3334660.421 12126384.755 22196562.308 10 0 60039 14400.00000 0 -5832716.777 13073769.731 21115078.162 10 0 60039 15300.00000 0 -8110324.246 14137117.971 19623643.322 10 0 60039 16200.00000 0 -10120896.398 15268237.989 17751137.255 10 0 60039 17100.00000 0 -11828630.370 16412485.907 15533849.674 10 0 60039 18000.00000 0 -13209748.278 17511093.123 13014783.171 10 0 60039 18900.00000 0 -14253239.319 18503688.378 10242823.878 10 0 60039 19800.00000 0 -14961072.001 19330908.308 7271795.596 10 0 60039 20700.00000 0 -15347868.040 19936986.357 4159415.418 10 0 60039 21600.00000 0 -15440052.139 20272210.472 966171.036 10 0 60039 22500.00000 0 -15274514.050 20295145.143 -2245858.250 10 0 60039 23400.00000 0 -14896839.980 19974523.052 -5414213.354 10 0 60039 24300.00000 0 -14359188.821 19290725.411 -8477275.820 10 0 60039 25200.00000 0 -13717903.793 18236787.402 -11375472.319 10 0 60039 26100.00000 0 -13030961.347 16818885.237 -14052438.953 10 0 60039 27000.00000 0 -12355366.063 15056283.334 -16456122.086 10 0 60039 27900.00000 0 -11744602.399 12980742.954 -18539793.786 10 0 60039 28800.00000 0 -11246251.607 10635416.423 -20262961.848 10 0 60039 29700.00000 0 -10899874.854 8073272.673 -21592156.716 10 0 60039 30600.00000 0 -10735252.129 5355119.452 -22501580.203 10 0 60039 31500.00000 0 -10771051.254 2547304.367 -22973603.767 10 0 60039 32400.00000 0 -11013983.000 -280809.848 -22999107.132 10 0 60039 33300.00000 0 -11458477.716 -3059491.226 -22577651.159 10 0 60039 34200.00000 0 -12086896.877 -5721296.093 -21717482.042 10 0 60039 35100.00000 0 -12870270.434 -8203628.434 -20435367.083 10 0 60039 36000.00000 0 -13769528.780 -10451095.544 -18756265.436 10 0 60039 36900.00000 0 -14737177.358 -12417562.889 -16712840.287 10 0 60039 37800.00000 0 -15719343.362 -14067823.791 -14344821.964 10 0 60039 38700.00000 0 -16658108.323 -15378815.562 -11698234.228 10 0 60039 39600.00000 0 -17494028.287 -16340332.632 -8824498.756 10 0 60039 40500.00000 0 -18168735.356 -16955208.292 -5779435.176 10 0 60039 41400.00000 0 -18627510.871 -17238958.830 -2622176.085 10 0 60039 42300.00000 0 -18821721.636 -17218906.367 585981.692 10 0 60039 43200.00000 0 -18711016.311 -16932818.570 3782767.138 10 0 60039 44100.00000 0 -18265189.199 -16427123.571 6906143.098 10 0 60039 45000.00000 0 -17465632.599 -15754776.204 9895508.688 10 0 60039 45900.00000 0 -16306316.254 -14972866.167 12692872.665 10 0 60039 46800.00000 0 -14794252.216 -14140069.322 15243975.088 10 0 60039 47700.00000 0 -12949425.020 -13314049.718 17499335.711 10 0 60039 48600.00000 0 -10804189.326 -12548921.727 19415209.169 10 0 60039 49500.00000 0 -8402159.335 -11892878.925 20954428.998 10 0 60039 50400.00000 0 -5796635.260 -11386089.139 22087124.679 10 0 60039 51300.00000 0 -3048631.301 -11058943.867 22791298.426 10 0 60039 52200.00000 0 -224585.843 -10930735.329 23053251.023 10 0 60039 53100.00000 0 2606152.196 -11008816.620 22867848.757 10 0 60039 54000.00000 0 5373957.839 -11288280.297 22238626.371 10 0 60039 54900.00000 0 8011577.180 -11752169.176 21177723.828 10 0 60039 55800.00000 0 10456678.387 -12372210.978 19705657.632 10 0 60039 56700.00000 0 12654201.514 -13110046.567 17850930.481 10 0 60039 57600.00000 0 14558410.200 -13918900.843 15649485.937 10 0 60039 58500.00000 0 16134560.341 -14745626.588 13144017.842 10 0 60039 59400.00000 0 17360116.593 -15533035.715 10383147.066 10 0 60039 60300.00000 0 18225466.178 -16222419.879 7420480.893 10 0 60039 61200.00000 0 18734100.419 -16756154.088 4313572.948 10 0 60039 62100.00000 0 18902256.716 -17080273.020 1122803.781 10 0 60039 63000.00000 0 18758036.428 -17146910.554 -2089795.953 10 0 60039 63900.00000 0 18340036.352 -16916498.519 -5261756.323 10 0 60039 64800.00000 0 17695552.116 -16359630.640 -8331388.728 10 0 60039 65700.00000 0 16878430.079 -15458511.754 -11238991.776 10 0 60039 66600.00000 0 15946659.210 -14207929.890 -13928018.149 10 0 60039 67500.00000 0 14959805.460 -12615709.079 -16346179.079 10 0 60039 68400.00000 0 13976397.660 -10702622.703 -18446464.461 10 0 60039 69300.00000 0 13051375.867 -8501770.108 -20188058.461 10 0 60039 70200.00000 0 12233710.171 -6057441.793 -21537132.802 10 0 60039 71100.00000 0 11564290.494 -3423519.935 -22467502.516 10 0 60039 72000.00000 0 11074176.209 -661480.518 -22961131.764 10 0 60039 72900.00000 0 10783278.984 2161920.209 -23008480.388 10 0 60039 73800.00000 0 10699533.862 4977179.128 -22608684.928 10 0 60039 74700.00000 0 10818592.905 7714694.647 -21769571.049 10 0 60039 75600.00000 0 11124053.712 10307420.608 -20507497.449 10 0 60039 76500.00000 0 11588212.651 12693416.092 -18847034.506 10 0 60039 77400.00000 0 12173310.594 14818185.840 -16820483.972 10 0 60039 78300.00000 0 12833218.272 16636714.816 -14467249.054 10 0 60039 79200.00000 0 13515489.886 18115113.150 -11833067.020 10 0 60039 80100.00000 0 14163698.121 19231803.932 -8969119.201 10 0 60039 81000.00000 0 14719951.828 19978205.403 -5931035.649 10 0 60039 81900.00000 0 15127489.914 20358880.258 -2777813.816 10 0 60039 82800.00000 0 15333241.735 20391146.995 429327.598 10 0 60039 83700.00000 0 15290245.685 20104170.888 3628137.187 10 0 60039 84600.00000 0 14959823.645 19537573.817 6756538.527 10 0 60039 85500.00000 0 14313419.237 18739622.406 9753833.360 10 0 60040 0.00000 0 13334022.122 17765071.514 12561876.643 10 0 60040 900.00000 0 12017117.273 16672753.783 15126202.178 10 0 60040 1800.00000 0 10371120.063 15523018.237 17397073.501 10 0 60040 2700.00000 0 8417276.359 14375123.927 19330445.048 10 0 60040 3600.00000 0 6189032.056 13284699.189 20888811.699 10 0 60040 4500.00000 0 3730896.807 12301372.385 22041932.319 10 0 60040 5400.00000 0 1096848.142 11466673.172 22767413.655 10 0 60040 6300.00000 0 -1651658.956 10812291.810 23051143.738 10 0 60040 7200.00000 0 -4447995.648 10358769.124 22887566.725 10 0 60040 8100.00000 0 -7222881.707 10114671.698 22279793.954 10 0 60040 9000.00000 0 -9907023.476 10076286.764 21239548.845 10 0 60040 9900.00000 0 -12433758.915 10227849.629 19786946.295 10 0 60040 10800.00000 0 -14741600.868 10542294.297 17950110.128 10 0 60040 11700.00000 0 -16776573.577 10982496.062 15764635.207 10 0 60040 12600.00000 0 -18494245.687 11502954.149 13272903.716 10 0 60040 13500.00000 0 -19861375.332 12051843.842 10523268.117 10 0 60040 14400.00000 0 -20857098.780 12573351.720 7569115.897 10 0 60040 15300.00000 0 -21473612.987 13010195.361 4467833.921 10 0 60040 16200.00000 0 -21716323.582 13306220.735 1279692.376 10 0 60040 17100.00000 0 -21603452.214 13408966.837 -1933329.834 10 0 60040 18000.00000 0 -21165120.091 13272088.258 -5108754.864 10 0 60040 18900.00000 0 -20441946.713 12857532.103 -8184826.709 10 0 60040 19800.00000 0 -19483223.433 12137376.023 -11101718.440 10 0 60040 20700.00000 0 -18344739.560 11095248.418 -13802701.584 10 0 60040 21600.00000 0 -17086353.357 9727269.577 -16235254.211 10 0 60040 22500.00000 0 -15769411.055 8042472.893 -18352085.671 10 0 60040 23400.00000 0 -14454123.220 6062687.305 -20112057.741 10 0 60040 24300.00000 0 -13197009.352 3821884.907 -21480984.263 10 0 60040 25200.00000 0 -12048518.400 1365020.160 -22432293.913 10 0 60040 26100.00000 0 -11050925.181 -1253591.500 -22947543.573 10 0 60040 27000.00000 0 -10236590.749 -3972288.659 -23016772.817 10 0 60040 27900.00000 0 -9626659.194 -6724389.193 -22638693.102 10 0 60040 28800.00000 0 -9230244.897 -9440729.551 -21820708.427 10 0 60040 29700.00000 0 -9044143.478 -12052313.004 -20578767.409 10 0 60040 30600.00000 0 -9053077.705 -14492957.374 -18937049.857 10 0 60040 31500.00000 0 -9230467.112 -16701832.681 -16927494.026 10 0 60040 32400.00000 0 -9539688.140 -18625783.844 -14589173.723 10 0 60040 33300.00000 0 -9935770.981 -20221342.439 -11967537.292 10 0 60040 34200.00000 0 -10367460.984 -21456344.450 -9113523.201 10 0 60040 35100.00000 0 -10779557.126 -22311087.349 -6082569.385 10 0 60040 36000.00000 0 -11115428.385 -22778979.134 -2933535.617 10 0 60040 36900.00000 0 -11319601.341 -22866653.123 272440.026 10 0 60040 37800.00000 0 -11340309.350 -22593544.716 3473128.202 10 0 60040 38700.00000 0 -11131895.270 -21990948.892 6606415.630 10 0 60040 39600.00000 0 -10656965.918 -21100598.870 9611509.050 10 0 60040 40500.00000 0 -9888206.973 -19972826.405 12430112.391 10 0 60040 41400.00000 0 -8809781.309 -18664381.536 15007554.365 10 0 60040 42300.00000 0 -7418251.311 -17236003.669 17293844.825 10 0 60040 43200.00000 0 -5722985.647 -15749846.025 19244639.780 10 0 60040 44100.00000 0 -3746032.456 -14266861.289 20822096.919 10 0 60040 45000.00000 0 -1521463.143 -12844257.709 21995605.607 10 0 60040 45900.00000 0 905787.133 -11533131.623 22742377.850 10 0 60040 46800.00000 0 3481535.375 -10376374.929 23047889.251 10 0 60040 47700.00000 0 6144357.286 -9406944.393 22906161.770 10 0 60040 48600.00000 0 8827902.487 -8646564.662 22319882.889 10 0 60040 49500.00000 0 11463423.667 -8104918.761 21300358.708 10 0 60040 50400.00000 0 13982415.797 -7779359.667 19867301.412 10 0 60040 51300.00000 0 16319256.814 -7655154.851 18048454.572 10 0 60040 52200.00000 0 18413740.747 -7706253.491 15879062.680 10 0 60040 53100.00000 0 20213398.311 -7896544.145 13401194.333 10 0 60040 54000.00000 0 21675508.508 -8181549.990 10662931.376 10 0 60040 54900.00000 0 22768717.275 -8510490.151 7717439.028 10 0 60040 55800.00000 0 23474195.402 -8828619.973 4621934.675 10 0 60040 56700.00000 0 23786287.054 -9079750.971 1436575.228 10 0 60040 57600.00000 0 23712621.622 -9208843.302 -1776715.181 10 0 60040 58500.00000 0 23273684.162 -9164560.233 -4955453.839 10 0 60040 59400.00000 0 22501862.696 -8901675.447 -8037820.292 10 0 60040 60300.00000 0 21440012.769 -8383230.160 -10963864.847 10 0 60040 61200.00000 0 20139600.203 -7582347.524 -13676680.392 10 0 60040 62100.00000 0 18658500.805 -6483626.379 -16123514.054 10 0 60040 63000.00000 0 17058550.275 -5084054.262 -18256796.538 10 0 60040 63900.00000 0 15402947.899 -3393400.006 -20035068.823 10 0 60040 64800.00000 0 13753623.635 -1434068.351 -21423788.148 10 0 60040 65700.00000 0 12168679.324 759578.393 -22395997.797 10 0 60040 66600.00000 0 10700011.409 3142404.038 -22932848.035 10 0 60040 67500.00000 0 9391214.522 5660138.908 -23023958.506 10 0 60040 68400.00000 0 8275853.197 8251409.167 -22667615.591 10 0 60040 69300.00000 0 7376173.333 10850071.097 -21870801.299 10 0 60040 70200.00000 0 6702306.372 13387753.713 -20649053.505 10 0 60040 71100.00000 0 6251998.425 15796504.428 -19026160.450 10 0 60040 72000.00000 0 6010874.523 18011428.146 -17033695.551 10 0 60040 72900.00000 0 5953225.714 19973210.427 -14710401.537 10 0 60040 73800.00000 0 6043284.785 21630420.152 -12101435.804 10 0 60040 74700.00000 0 6236935.923 22941496.192 -9257491.602 10 0 60040 75600.00000 0 6483785.329 23876335.781 -6233812.090 10 0 60040 76500.00000 0 6729504.700 24417418.873 -3089116.432 10 0 60040 77400.00000 0 6918347.967 24560422.156 115541.042 10 0 60040 78300.00000 0 6995734.437 24314297.778 3317956.291 10 0 60040 79200.00000 0 6910788.722 23700814.266 6455982.432 10 0 60040 80100.00000 0 6618729.752 22753579.609 9468734.375 10 0 60040 81000.00000 0 6083007.559 21516588.167 12297767.793 10 0 60040 81900.00000 0 5277097.266 20042352.812 14888209.605 10 0 60040 82800.00000 0 4185874.136 18389700.964 17189818.232 10 0 60040 83700.00000 0 2806511.157 16621326.955 19157953.473 10 0 60040 84600.00000 0 1148860.606 14801203.050 20754437.702 10 0 60040 85500.00000 0 -764697.437 12991957.086 21948292.304 10 0 60041 0.00000 0 -2899934.345 11252325.951 22716335.608 10 0 60041 900.00000 0 -5211954.190 9634789.664 23043631.610 10 0 60041 1800.00000 0 -7646826.350 8183486.418 22923780.181 10 0 60041 2700.00000 0 -10143606.807 6932491.765 22359044.621 10 0 60041 3600.00000 0 -12636662.775 5904535.447 21360312.818 10 0 60041 4500.00000 0 -15058206.379 5110207.944 19946892.792 10 0 60041 5400.00000 0 -17340932.971 4547689.599 18146145.841 10 0 60041 6300.00000 0 -19420655.146 4203013.315 15992963.569 10 0 60041 7200.00000 0 -21238823.256 4050849.520 13529098.034 10 0 60041 8100.00000 0 -22744827.539 4055780.213 10802357.184 10 0 60041 9000.00000 0 -23897985.717 4174008.208 7865680.490 10 0 60041 9900.00000 0 -24669132.620 4355429.223 4776112.300 10 0 60041 10800.00000 0 -25041744.945 4545978.837 1593692.711 10 0 60041 11700.00000 0 -25012553.555 4690154.501 -1619712.339 10 0 60041 12600.00000 0 -24591617.299 4733605.050 -4801618.523 10 0 60041 13500.00000 0 -23801855.074 4625677.123 -7890143.984 10 0 60041 14400.00000 0 -22678055.824 4321809.539 -10825219.066 10 0 60041 15300.00000 0 -21265408.302 3785673.078 -13549760.545 10 0 60041 16200.00000 0 -19617612.805 2990963.923 -16010786.801 10 0 60041 17100.00000 0 -17794654.684 1922773.747 -18160451.721 10 0 60041 18000.00000 0 -15860333.634 578477.487 -19956976.873 10 0 60041 18900.00000 0 -13879652.844 -1031899.704 -21365463.795 10 0 60041 19800.00000 0 -11916177.704 -2885852.765 -22358570.777 10 0 60041 20700.00000 0 -10029474.688 -4949098.067 -22917041.334 10 0 60041 21600.00000 0 -8272737.383 -7176777.231 -23030074.562 10 0 60041 22500.00000 0 -6690698.372 -9515113.865 -22695530.688 10 0 60041 23400.00000 0 -5317913.497 -11903454.666 -21919968.242 10 0 60041 24300.00000 0 -4177489.195 -14276610.339 -20718512.511 10 0 60041 25200.00000 0 -3280304.893 -16567399.282 -19114558.030 10 0 60041 26100.00000 0 -2624761.683 -18709288.443 -17139311.009 10 0 60041 27000.00000 0 -2197066.392 -20639021.681 -14831180.559 10 0 60041 27900.00000 0 -1972037.715 -22299126.403 -12235030.495 10 0 60041 28800.00000 0 -1914399.232 -23640194.204 -9401306.177 10 0 60041 29700.00000 0 -1980503.655 -24622840.624 -6385053.337 10 0 60041 30600.00000 0 -2120414.562 -25219262.487 -3244847.946 10 0 60041 31500.00000 0 -2280256.897 -25414328.077 -41658.093 10 0 60041 32400.00000 0 -2404736.186 -25206154.980 3162339.873 10 0 60041 33300.00000 0 -2439719.439 -24606151.901 6304967.754 10 0 60041 34200.00000 0 -2334768.156 -23638523.185 9325250.816 10 0 60041 35100.00000 0 -2045516.017 -22339257.307 12164598.546 10 0 60041 36000.00000 0 -1535790.478 -20754642.068 14767937.996 10 0 60041 36900.00000 0 -779388.345 -18939368.931 17084777.913 10 0 60041 37800.00000 0 238569.948 -16954305.853 19070183.402 10 0 60041 38700.00000 0 1520765.020 -14864031.570 20685642.776 10 0 60041 39600.00000 0 3057319.750 -12734233.956 21899810.365 10 0 60041 40500.00000 0 4825973.152 -10629080.440 22689111.505 10 0 60041 41400.00000 0 6792780.892 -8608669.380 23038198.533 10 0 60041 42300.00000 0 8913314.617 -6726667.807 22940249.275 10 0 60041 43200.00000 0 11134311.571 -5028233.088 22397102.392 10 0 60041 44100.00000 0 13395707.284 -3548304.232 21419226.793 10 0 60041 45000.00000 0 15632968.020 -2310333.368 20025525.288 10 0 60041 45900.00000 0 17779627.072 -1325509.599 18242975.610 10 0 60041 46800.00000 0 19769920.164 -592507.123 16106114.935 10 0 60041 47700.00000 0 21541410.638 -97767.670 13656377.008 10 0 60041 48600.00000 0 23037495.142 183695.012 10941293.881 10 0 60041 49500.00000 0 24209685.015 287002.852 8013577.041 10 0 60041 50400.00000 0 25019567.557 255688.185 4930095.332 10 0 60041 51300.00000 0 25440364.484 139608.832 1750769.389 10 0 60041 52200.00000 0 25458021.559 -7407.724 -1462595.836 10 0 60041 53100.00000 0 25071783.031 -130090.628 -4647517.249 10 0 60041 54000.00000 0 24294226.257 -174314.512 -7742054.388 10 0 60041 54900.00000 0 23150754.681 -89640.256 -10686020.306 10 0 60041 55800.00000 0 21678570.370 168301.089 -13422158.119 10 0 60041 56700.00000 0 19925169.315 635683.254 -15897259.656 10 0 60041 57600.00000 0 17946422.888 1338709.609 -18063203.890 10 0 60041 58500.00000 0 15804326.242 2292263.980 -19877894.609 10 0 60041 59400.00000 0 13564508.320 3499045.363 -21306079.021 10 0 60041 60300.00000 0 11293607.887 4949223.909 -22320031.552 10 0 60041 61200.00000 0 9056625.393 6620633.482 -22900089.867 10 0 60041 62100.00000 0 6914361.110 8479493.500 -23035033.161 10 0 60041 63000.00000 0 4921046.009 10481630.507 -22722295.878 10 0 60041 63900.00000 0 3122263.572 12574148.995 -21968013.132 10 0 60041 64800.00000 0 1553248.246 14697482.176 -20786897.349 10 0 60041 65700.00000 0 237630.337 16787737.564 -19201948.716 10 0 60041 66600.00000 0 -813321.567 18779239.775 -17244005.210 10 0 60041 67500.00000 0 -1600930.511 20607164.758 -14951140.917 10 0 60041 68400.00000 0 -2138805.326 22210155.660 -12367924.280 10 0 60041 69300.00000 0 -2452013.392 23532811.236 -9544550.620 10 0 60041 70200.00000 0 -2575768.219 24527942.922 -6535865.760 10 0 60041 71100.00000 0 -2553688.431 25158506.303 -3400299.718 10 0 60041 72000.00000 0 -2435702.671 25399126.260 -198731.357 10 0 60041 72900.00000 0 -2275689.835 25237152.125 3006693.801 10 0 60041 73800.00000 0 -2128955.068 24673198.851 6153769.438 10 0 60041 74700.00000 0 -2049648.787 23721151.769 9181434.356 10 0 60041 75600.00000 0 -2088238.236 22407634.963 12030954.948 10 0 60041 76500.00000 0 -2289138.735 20770965.705 14647061.340 10 0 60041 77400.00000 0 -2688604.893 18859638.795 16979015.338 10 0 60041 78300.00000 0 -3312971.062 16730404.090 18981589.856 10 0 60041 79200.00000 0 -4177315.516 14446017.272 20615941.368 10 0 60041 80100.00000 0 -5284605.143 12072757.263 21850359.061 10 0 60041 81000.00000 0 -6625357.303 9677813.106 22660876.793 10 0 60041 81900.00000 0 -8177834.090 7326648.337 23031736.534 10 0 60041 82800.00000 0 -9908762.014 5080451.636 22955694.683 10 0 60041 83700.00000 0 -11774548.440 2993778.853 22434165.442 10 0 60041 84600.00000 0 -13722945.366 1112483.525 21477198.372 10 0 60041 85500.00000 0 -15695092.523 -527978.831 20103290.104 10 0 60042 0.00000 0 -17627855.596 -1903802.748 18339033.419 10 0 60042 900.00000 0 -19456364.047 -3003590.318 16218608.619 10 0 60042 1800.00000 0 -21116640.656 -3828581.373 13783128.625 10 0 60042 2700.00000 0 -22548216.676 -4392349.691 11079846.513 10 0 60042 3600.00000 0 -23696620.571 -4719976.608 8161242.375 10 0 60042 4500.00000 0 -24515636.763 -4846738.089 5084005.942 10 0 60042 5400.00000 0 -24969238.871 -4816361.005 1907934.668 10 0 60042 6300.00000 0 -25033115.526 -4678922.923 -1305231.194 10 0 60042 7200.00000 0 -24695723.769 -4488484.920 -4493013.413 10 0 60042 8100.00000 0 -23958824.973 -4300558.525 -7593416.418 10 0 60042 9000.00000 0 -22837480.049 -4169514.986 -10546139.259 10 0 60042 9900.00000 0 -21359503.632 -4146047.657 -13293754.440 10 0 60042 10800.00000 0 -19564399.895 -4274795.986 -15782829.969 10 0 60042 11700.00000 0 -17501824.523 -4592232.693 -17964972.255 10 0 60042 12600.00000 0 -15229637.396 -5124904.388 -19797769.186 10 0 60042 13500.00000 0 -12811627.630 -5888100.835 -21245614.985 10 0 60042 14400.00000 0 -10315006.198 -6885009.719 -22280400.960 10 0 60042 15300.00000 0 -7807770.900 -8106393.221 -22882059.053 10 0 60042 16200.00000 0 -5356053.448 -9530800.601 -23038948.078 10 0 60042 17100.00000 0 -3021558.859 -11125308.446 -22748075.647 10 0 60042 18000.00000 0 -859203.271 -12846758.026 -22015151.916 10 0 60042 18900.00000 0 1084952.325 -14643438.381 -20854474.481 10 0 60042 19800.00000 0 2775387.425 -16457145.116 -19288646.878 10 0 60042 20700.00000 0 4188357.467 -18225529.028 -17348136.274 10 0 60042 21600.00000 0 5312629.284 -19884636.608 -15070678.956 10 0 60042 22500.00000 0 6149687.403 -21371536.267 -12500545.086 10 0 60042 23400.00000 0 6713404.152 -22626920.456 -9687676.963 10 0 60042 24300.00000 0 7029188.989 -23597574.755 -6686717.497 10 0 60042 25200.00000 0 7132654.332 -24238610.483 -3555947.782 10 0 60042 26100.00000 0 7067855.367 -24515367.189 -356154.570 10 0 60042 27000.00000 0 6885179.233 -24404905.267 2850550.202 10 0 60042 27900.00000 0 6638973.614 -23897026.057 6001934.695 10 0 60042 28800.00000 0 6385015.616 -22994776.665 9036853.647 10 0 60042 29700.00000 0 6177928.397 -21714418.342 11896432.527 10 0 60042 30600.00000 0 6068655.010 -20084859.675 14525206.458 10 0 60042 31500.00000 0 6102096.357 -18146578.214 16872191.936 10 0 60042 32400.00000 0 6315013.045 -15950075.353 18891871.001 10 0 60042 33300.00000 0 6734279.756 -13553928.583 20545069.267 10 0 60042 34200.00000 0 7375565.886 -11022521.772 21799711.401 10 0 60042 35100.00000 0 8242498.335 -8423547.272 22631440.034 10 0 60042 36000.00000 0 9326342.269 -5825382.876 23024086.677 10 0 60042 36900.00000 0 10606214.092 -3294451.701 22969985.861 10 0 60042 37800.00000 0 12049818.791 -892673.658 22470126.601 10 0 60042 38700.00000 0 13614682.037 1324886.667 21534138.104 10 0 60042 39600.00000 0 15249826.744 3312078.887 20180109.598 10 0 60042 40500.00000 0 16897825.238 5033347.734 18434247.130 10 0 60042 41400.00000 0 18497142.235 6464966.758 16330373.150 10 0 60042 42300.00000 0 19984671.390 7595774.040 13909277.705 10 0 60042 43200.00000 0 21298359.658 8427379.738 11217932.943 10 0 60042 44100.00000 0 22379809.578 8973837.334 8308585.453 10 0 60042 45000.00000 0 23176750.006 9260792.927 5237743.570 10 0 60042 45900.00000 0 23645270.952 9324148.934 2065079.152 10 0 60042 46800.00000 0 23751727.763 9208299.209 -1147734.766 10 0 60042 47700.00000 0 23474233.557 8964010.831 -4338227.370 10 0 60042 48600.00000 0 22803676.098 8646042.983 -7444350.507 10 0 60042 49500.00000 0 21744215.370 8310604.590 -10405691.638 10 0 60042 50400.00000 0 20313240.063 8012759.329 -13164654.882 10 0 60042 51300.00000 0 18540784.150 7803888.829 -15667586.434 10 0 60042 52200.00000 0 16468427.577 7729322.330 -17865821.911 10 0 60042 53100.00000 0 14147726.877 7826233.893 -19716634.841 10 0 60042 54000.00000 0 11638241.262 8121896.702 -21184067.797 10 0 60042 54900.00000 0 9005236.592 8632368.740 -22239630.131 10 0 60042 55800.00000 0 6317162.994 9361665.715 -22862849.047 10 0 60042 56700.00000 0 3643011.106 10301456.442 -23041663.774 10 0 60042 57600.00000 0 1049656.671 11431293.818 -22772655.667 10 0 60042 58500.00000 0 -1400696.471 12719371.961 -22061110.218 10 0 60042 59400.00000 0 -3652869.360 14123777.976 -20920910.150 10 0 60042 60300.00000 0 -5660759.944 15594186.074 -19374261.932 10 0 60042 61200.00000 0 -7389009.827 17073923.197 -17451261.116 10 0 60042 62100.00000 0 -8814217.652 18502319.661 -15189304.992 10 0 60042 63000.00000 0 -9925649.944 19817246.380 -12632363.872 10 0 60042 63900.00000 0 -10725421.261 20957732.245 -9830125.135 10 0 60042 64800.00000 0 -11228137.698 21866551.800 -6837026.595 10 0 60042 65700.00000 0 -11460020.267 22492674.505 -3711198.003 10 0 60042 66600.00000 0 -11457546.450 22793472.596 -513331.393 10 0 60042 67500.00000 0 -11265668.426 22736594.649 2694497.624 10 0 60042 68400.00000 0 -10935684.184 22301425.981 5850034.523 10 0 60042 69300.00000 0 -10522852.233 21480074.392 8892052.855 10 0 60042 70200.00000 0 -10083851.222 20277839.673 11761540.053 10 0 60042 71100.00000 0 -9674192.136 18713146.909 14402839.070 10 0 60042 72000.00000 0 -9345692.494 16816946.095 16764723.854 10 0 60042 72900.00000 0 -9144119.149 14631602.702 18801388.200 10 0 60042 73800.00000 0 -9107099.033 12209324.953 20473329.321 10 0 60042 74700.00000 0 -9262385.801 9610192.698 21748109.606 10 0 60042 75600.00000 0 -9626555.369 6899869.082 22600982.435 10 0 60042 76500.00000 0 -10204185.404 4147089.160 23015370.499 10 0 60042 77400.00000 0 -10987553.663 1421028.747 22983187.716 10 0 60042 78300.00000 0 -11956868.490 -1211338.390 22504998.708 10 0 60042 79200.00000 0 -13081022.735 -3687786.423 21590012.614 10 0 60042 80100.00000 0 -14318840.450 -5953181.714 20255910.988 10 0 60042 81000.00000 0 -15620765.249 -7961529.015 18528512.472 10 0 60042 81900.00000 0 -16930920.523 -9677635.259 16441279.928 10 0 60042 82800.00000 0 -18189455.985 -11078322.341 14034678.692 10 0 60042 83700.00000 0 -19335082.615 -12153138.799 11355397.528 10 0 60042 84600.00000 0 -20307689.806 -12904541.181 8455446.634 10 0 60042 85500.00000 0 -21050934.530 -13347537.948 5391149.744 99